| time (UTC) | temp F | wind direction | speed MPH | gust MPH | rain 1hr in | rain 24hr in | rain mn in | humidity % | barometer mb |
| 20260504181158 | 71 | 319 | 1.0 | 3.0 | 0.00 | 0.00 | 0.00 | 38 | 1011.1 |
| 20260504180701 | 71 | 297 | 0.0 | 2.0 | 0.00 | 0.00 | 0.00 | 38 | 1011.1 |
| 20260504180158 | 71 | 265 | 0.0 | 2.0 | 0.00 | 0.00 | 0.00 | 38 | 1011.1 |
| 20260504175704 | 71 | 243 | 1.0 | 5.0 | 0.00 | 0.00 | 0.00 | 38 | 1011.1 |
| 20260504175201 | 71 | 305 | 1.0 | 5.0 | 0.00 | 0.00 | 0.00 | 37 | 1010.8 |
| 20260504174707 | 71 | 304 | 1.0 | 5.0 | 0.00 | 0.00 | 0.00 | 37 | 1010.8 |
| 20260504174158 | 71 | 312 | 2.0 | 5.0 | 0.00 | 0.00 | 0.00 | 37 | 1010.8 |
| 20260504173701 | 71 | 317 | 1.0 | 4.0 | 0.00 | 0.00 | 0.00 | 36 | 1010.8 |
| 20260504173158 | 72 | 325 | 2.0 | 4.0 | 0.00 | 0.00 | 0.00 | 36 | 1011.1 |
| 20260504172657 | 72 | 279 | 1.0 | 4.0 | 0.00 | 0.00 | 0.00 | 36 | 1011.1 |
| 20260504172158 | 71 | 309 | 1.0 | 4.0 | 0.00 | 0.00 | 0.00 | 36 | 1011.1 |
| 20260504171700 | 72 | 312 | 1.0 | 4.0 | 0.00 | 0.00 | 0.00 | 36 | 1011.1 |
| 20260504171158 | 72 | 301 | 0.0 | 4.0 | 0.00 | 0.00 | 0.00 | 35 | 1010.8 |
| 20260504170658 | 72 | 322 | 2.0 | 4.0 | 0.00 | 0.00 | 0.00 | 35 | 1010.8 |
| 20260504170158 | 72 | 338 | 2.0 | 5.0 | 0.00 | 0.00 | 0.00 | 35 | 1010.8 |
| 20260504160158 | 75 | 304 | 3.0 | 6.0 | 0.00 | 0.00 | 0.00 | 31 | 1011.1 |
| 20260504150701 | 77 | 329 | 2.0 | 4.0 | 0.00 | 0.00 | 0.00 | 28 | 1011.4 |
| 20260504150158 | 78 | 229 | 1.0 | 3.0 | 0.00 | 0.00 | 0.00 | 27 | 1011.4 |
| 20260504141201 | 78 | 317 | 3.0 | 6.0 | 0.00 | 0.00 | 0.00 | 27 | 1011.4 |
| 20260504140704 | 78 | 191 | 0.0 | 5.0 | 0.00 | 0.00 | 0.00 | 28 | 1011.4 |
| 20260504140201 | 76 | 300 | 2.0 | 5.0 | 0.00 | 0.00 | 0.00 | 29 | 1011.4 |
| 20260504130658 | 79 | 199 | 2.0 | 7.0 | 0.00 | 0.00 | 0.00 | 25 | 1012.1 |
| 20260504130158 | 79 | 238 | 3.0 | 7.0 | 0.00 | 0.00 | 0.00 | 25 | 1012.1 |
| 20260504120158 | 77 | 291 | 2.0 | 6.0 | 0.00 | 0.00 | 0.00 | 26 | 1012.5 |
| 20260504110704 | 73 | 257 | 1.0 | 8.0 | 0.00 | 0.00 | 0.00 | 29 | 1013.2 |
| 20260504110201 | 73 | 296 | 3.0 | 8.0 | 0.00 | 0.00 | 0.00 | 29 | 1013.2 |
| 20260504100201 | 74 | 233 | 1.0 | 6.0 | 0.00 | 0.00 | 0.00 | 28 | 1013.9 |
| 20260504081658 | 69 | 230 | 2.0 | 5.0 | 0.00 | 0.00 | 0.00 | 33 | 1014.2 |
| 20260504081158 | 67 | 206 | 1.0 | 8.0 | 0.00 | 0.00 | 0.00 | 34 | 1014.2 |
| 20260504080700 | 67 | 236 | 2.0 | 7.0 | 0.00 | 0.00 | 0.00 | 34 | 1014.2 |
| 20260504080201 | 67 | 242 | 2.0 | 7.0 | 0.00 | 0.00 | 0.00 | 34 | 1014.2 |
| 20260504070157 | 67 | 137 | 0.0 | 1.0 | 0.00 | 0.00 | 0.00 | 40 | 1014.2 |
| 20260504060157 | 59 | 200 | 1.0 | 2.0 | 0.00 | 0.00 | 0.00 | 55 | 1013.9 |
| 20260504050701 | 54 | 105 | 1.0 | 3.0 | 0.00 | 0.00 | 0.00 | 66 | 1013.5 |
| 20260504050158 | 54 | 115 | 1.0 | 1.0 | 0.00 | 0.00 | 0.00 | 65 | 1013.5 |
| 20260504045703 | 54 | 66 | 1.0 | 1.0 | 0.00 | 0.00 | 0.00 | 65 | 1013.5 |
| 20260504045201 | 54 | 212 | 0.0 | 2.0 | 0.00 | 0.00 | 0.00 | 66 | 1013.9 |
| 20260504044657 | 53 | 260 | 1.0 | 2.0 | 0.00 | 0.00 | 0.00 | 66 | 1013.9 |
| 20260504044158 | 53 | 183 | 0.0 | 2.0 | 0.00 | 0.00 | 0.00 | 67 | 1013.5 |
| 20260504043704 | 53 | 242 | 1.0 | 2.0 | 0.00 | 0.00 | 0.00 | 68 | 1013.5 |
| 20260504043158 | 53 | 248 | 1.0 | 1.0 | 0.00 | 0.00 | 0.00 | 68 | 1013.5 |
| 20260504042658 | 53 | 170 | 0.0 | 2.0 | 0.00 | 0.00 | 0.00 | 70 | 1013.5 |
| 20260504042204 | 53 | 211 | 0.0 | 2.0 | 0.00 | 0.00 | 0.00 | 70 | 1013.5 |
| 20260504041701 | 53 | 109 | 1.0 | 2.0 | 0.00 | 0.00 | 0.00 | 70 | 1013.5 |
| 20260504041157 | 53 | 93 | 1.0 | 2.0 | 0.00 | 0.00 | 0.00 | 70 | 1013.5 |
| 20260504040657 | 53 | 214 | 0.0 | 1.0 | 0.00 | 0.00 | 0.00 | 70 | 1013.5 |
| 20260504040157 | 53 | 199 | 0.0 | 1.0 | 0.00 | 0.00 | 0.00 | 70 | 1013.5 |
| 20260504035701 | 53 | 190 | 0.0 | 2.0 | 0.00 | 0.00 | 0.00 | 70 | 1013.2 |
| 20260504035157 | 53 | 91 | 1.0 | 1.0 | 0.00 | 0.00 | 0.00 | 70 | 1013.5 |
| 20260504034700 | 54 | 150 | 0.0 | 2.0 | 0.00 | 0.00 | 0.00 | 70 | 1013.5 |
| 20260504034157 | 54 | 107 | 1.0 | 3.0 | 0.00 | 0.00 | 0.00 | 70 | 1013.5 |
| 20260504033700 | 54 | 75 | 2.0 | 3.0 | 0.00 | 0.00 | 0.00 | 70 | 1013.5 |
| 20260504033201 | 54 | 136 | 0.0 | 2.0 | 0.00 | 0.00 | 0.00 | 69 | 1013.5 |
| 20260504032657 | 54 | 161 | 0.0 | 1.0 | 0.00 | 0.00 | 0.00 | 70 | 1013.5 |
| 20260504032157 | 54 | 91 | 0.0 | 1.0 | 0.00 | 0.00 | 0.00 | 70 | 1013.5 |
| 20260504031703 | 54 | 221 | 0.0 | 1.0 | 0.00 | 0.00 | 0.00 | 69 | 1013.5 |
| 20260504031200 | 55 | 123 | 0.0 | 3.0 | 0.00 | 0.00 | 0.00 | 68 | 1013.5 |
| 20260504030658 | 55 | 96 | 1.0 | 3.0 | 0.00 | 0.00 | 0.00 | 67 | 1013.5 |
| 20260504030204 | 55 | 214 | 0.0 | 1.0 | 0.00 | 0.00 | 0.00 | 64 | 1013.5 |
| 20260504025701 | 55 | 332 | 0.0 | 1.0 | 0.00 | 0.00 | 0.00 | 64 | 1013.5 |
| 20260504025157 | 55 | 202 | 0.0 | 1.0 | 0.00 | 0.00 | 0.00 | 63 | 1013.5 |
| 20260504024657 | 55 | 221 | 1.0 | 2.0 | 0.00 | 0.00 | 0.00 | 63 | 1013.5 |
| 20260504024204 | 55 | 191 | 0.0 | 2.0 | 0.00 | 0.00 | 0.00 | 63 | 1013.5 |
| 20260504023658 | 56 | 228 | 1.0 | 2.0 | 0.00 | 0.00 | 0.00 | 63 | 1013.2 |
| 20260504023203 | 56 | 253 | 0.0 | 2.0 | 0.00 | 0.00 | 0.00 | 65 | 1013.2 |
| 20260504022704 | 56 | 303 | 0.0 | 1.0 | 0.00 | 0.00 | 0.00 | 67 | 1013.2 |
| 20260504022200 | 56 | 219 | 0.0 | 1.0 | 0.00 | 0.00 | 0.00 | 66 | 1013.2 |
| 20260504021700 | 56 | 243 | 0.0 | 1.0 | 0.00 | 0.00 | 0.00 | 66 | 1013.2 |
| 20260504021157 | 56 | 169 | 0.0 | 1.0 | 0.00 | 0.00 | 0.00 | 65 | 1013.2 |
| 20260504020657 | 56 | 168 | 0.0 | 2.0 | 0.00 | 0.00 | 0.00 | 65 | 1013.2 |
| 20260504020158 | 56 | 124 | 1.0 | 2.0 | 0.00 | 0.00 | 0.00 | 65 | 1013.2 |
| 20260504015701 | 57 | 114 | 0.0 | 1.0 | 0.00 | 0.00 | 0.00 | 64 | 1013.2 |
| 20260504015158 | 57 | 139 | 0.0 | 1.0 | 0.00 | 0.00 | 0.00 | 63 | 1013.2 |
| 20260504014707 | 57 | 154 | 0.0 | 1.0 | 0.00 | 0.00 | 0.00 | 63 | 1013.2 |
| 20260504014158 | 57 | 109 | 0.0 | 2.0 | 0.00 | 0.00 | 0.00 | 63 | 1013.2 |
| 20260504013658 | 58 | 86 | 1.0 | 2.0 | 0.00 | 0.00 | 0.00 | 63 | 1013.2 |
| 20260504013157 | 58 | 103 | 1.0 | 2.0 | 0.00 | 0.00 | 0.00 | 62 | 1013.2 |
| 20260504012701 | 58 | 122 | 0.0 | 1.0 | 0.00 | 0.00 | 0.00 | 62 | 1013.5 |
| 20260504012157 | 58 | 136 | 0.0 | 2.0 | 0.00 | 0.00 | 0.00 | 61 | 1013.5 |
| 20260504011657 | 58 | 88 | 0.0 | 2.0 | 0.00 | 0.00 | 0.00 | 60 | 1013.5 |
| 20260504011157 | 58 | 141 | 1.0 | 2.0 | 0.00 | 0.00 | 0.00 | 59 | 1013.2 |
| 20260504010657 | 59 | 22 | 0.0 | 1.0 | 0.00 | 0.00 | 0.00 | 57 | 1013.2 |
| 20260504010201 | 59 | 319 | 0.0 | 1.0 | 0.00 | 0.00 | 0.00 | 58 | 1013.2 |
| 20260504005657 | 59 | 312 | 0.0 | 1.0 | 0.00 | 0.00 | 0.00 | 58 | 1013.2 |
| 20260504005200 | 59 | 323 | 0.0 | 1.0 | 0.00 | 0.00 | 0.00 | 58 | 1013.5 |
| 20260504004658 | 59 | 298 | 0.0 | 1.0 | 0.00 | 0.00 | 0.00 | 57 | 1013.5 |
| 20260504004157 | 59 | 277 | 0.0 | 1.0 | 0.00 | 0.00 | 0.00 | 57 | 1013.5 |
| 20260504003658 | 59 | 317 | 0.0 | 2.0 | 0.00 | 0.00 | 0.00 | 58 | 1013.5 |
| 20260504003200 | 59 | 305 | 1.0 | 2.0 | 0.00 | 0.00 | 0.00 | 58 | 1013.5 |
| 20260504002700 | 60 | 289 | 1.0 | 2.0 | 0.00 | 0.00 | 0.00 | 58 | 1013.5 |
| 20260504002207 | 60 | 329 | 0.0 | 1.0 | 0.00 | 0.00 | 0.00 | 58 | 1013.2 |
| 20260504001706 | 60 | 327 | 0.0 | 2.0 | 0.00 | 0.00 | 0.00 | 57 | 1013.5 |
| 20260504001157 | 60 | 237 | 0.0 | 2.0 | 0.00 | 0.00 | 0.00 | 56 | 1013.5 |
| 20260504000658 | 60 | 310 | 0.0 | 2.0 | 0.00 | 0.00 | 0.00 | 56 | 1013.2 |
| 20260504000204 | 61 | 302 | 0.0 | 2.0 | 0.00 | 0.00 | 0.00 | 55 | 1013.2 |
| 20260503235658 | 61 | 209 | 0.0 | 1.0 | 0.00 | 0.00 | 0.00 | 54 | 1013.2 |
| 20260503235157 | 61 | 260 | 0.0 | 1.0 | 0.00 | 0.00 | 0.00 | 54 | 1013.2 |
| 20260503234701 | 61 | 217 | 0.0 | 2.0 | 0.00 | 0.00 | 0.00 | 54 | 1013.2 |
| 20260503234158 | 61 | 177 | 0.0 | 2.0 | 0.00 | 0.00 | 0.00 | 54 | 1013.2 |
| 20260503233658 | 61 | 173 | 0.0 | 2.0 | 0.00 | 0.00 | 0.00 | 54 | 1013.2 |
| 20260503233203 | 61 | 42 | 0.0 | 1.0 | 0.00 | 0.00 | 0.00 | 55 | 1013.2 |
| 20260503232701 | 61 | 192 | 0.0 | 3.0 | 0.00 | 0.00 | 0.00 | 55 | 1013.2 |
| 20260503232158 | 61 | 256 | 1.0 | 3.0 | 0.00 | 0.00 | 0.00 | 54 | 1012.9 |
| 20260503231704 | 61 | 284 | 0.0 | 1.0 | 0.00 | 0.00 | 0.00 | 54 | 1012.9 |
| 20260503231158 | 61 | 204 | 0.0 | 1.0 | 0.00 | 0.00 | 0.00 | 54 | 1012.9 |
| 20260503230707 | 61 | 358 | 0.0 | 1.0 | 0.00 | 0.00 | 0.00 | 53 | 1012.9 |
| 20260503230157 | 61 | 265 | 0.0 | 1.0 | 0.00 | 0.00 | 0.00 | 53 | 1012.9 |
| 20260503225700 | 61 | 265 | 0.0 | 2.0 | 0.00 | 0.00 | 0.00 | 54 | 1012.9 |
| 20260503225201 | 61 | 218 | 0.0 | 1.0 | 0.00 | 0.00 | 0.00 | 53 | 1012.9 |
| 20260503224658 | 61 | 272 | 0.0 | 2.0 | 0.00 | 0.00 | 0.00 | 53 | 1012.9 |
| 20260503224158 | 61 | 331 | 1.0 | 2.0 | 0.00 | 0.00 | 0.00 | 53 | 1012.9 |
| 20260503223700 | 61 | 210 | 0.0 | 2.0 | 0.00 | 0.00 | 0.00 | 54 | 1012.9 |
| 20260503223157 | 61 | 302 | 1.0 | 1.0 | 0.00 | 0.00 | 0.00 | 53 | 1012.5 |
| 20260503222658 | 61 | 319 | 0.0 | 1.0 | 0.00 | 0.00 | 0.00 | 53 | 1012.5 |
| 20260503222201 | 61 | 218 | 0.0 | 1.0 | 0.00 | 0.00 | 0.00 | 53 | 1012.5 |
| 20260503221700 | 61 | 313 | 0.0 | 1.0 | 0.00 | 0.00 | 0.00 | 54 | 1012.5 |
| 20260503221200 | 61 | 305 | 1.0 | 2.0 | 0.00 | 0.00 | 0.00 | 54 | 1012.5 |
| 20260503220701 | 61 | 242 | 1.0 | 2.0 | 0.00 | 0.00 | 0.00 | 53 | 1012.5 |
| 20260503220200 | 61 | 320 | 0.0 | 2.0 | 0.00 | 0.00 | 0.00 | 53 | 1012.5 |
| 20260503215700 | 61 | 215 | 1.0 | 2.0 | 0.00 | 0.00 | 0.00 | 52 | 1012.5 |
| 20260503215158 | 61 | 235 | 1.0 | 2.0 | 0.00 | 0.00 | 0.00 | 52 | 1012.5 |
| 20260503214700 | 62 | 249 | 1.0 | 2.0 | 0.00 | 0.00 | 0.00 | 52 | 1012.5 |
| 20260503214157 | 62 | 267 | 0.0 | 1.0 | 0.00 | 0.00 | 0.00 | 52 | 1012.5 |
| 20260503213701 | 62 | 289 | 0.0 | 1.0 | 0.00 | 0.00 | 0.00 | 52 | 1012.1 |
| 20260503213158 | 62 | 289 | 0.0 | 2.0 | 0.00 | 0.00 | 0.00 | 52 | 1012.1 |
| 20260503212700 | 62 | 342 | 0.0 | 1.0 | 0.00 | 0.00 | 0.00 | 52 | 1012.1 |
| 20260503212200 | 62 | 246 | 0.0 | 1.0 | 0.00 | 0.00 | 0.00 | 52 | 1012.1 |
| 20260503211701 | 62 | 300 | 0.0 | 1.0 | 0.00 | 0.00 | 0.00 | 52 | 1012.1 |
| 20260503211158 | 62 | 210 | 0.0 | 2.0 | 0.00 | 0.00 | 0.00 | 51 | 1012.1 |
| 20260503210700 | 62 | 297 | 1.0 | 2.0 | 0.00 | 0.00 | 0.00 | 51 | 1012.1 |
| 20260503210201 | 62 | 291 | 0.0 | 2.0 | 0.00 | 0.00 | 0.00 | 50 | 1012.1 |
| 20260503205703 | 63 | 216 | 0.0 | 2.0 | 0.00 | 0.00 | 0.00 | 49 | 1012.1 |
| 20260503205200 | 63 | 273 | 0.0 | 1.0 | 0.00 | 0.00 | 0.00 | 49 | 1011.8 |
| 20260503204700 | 64 | 258 | 0.0 | 2.0 | 0.00 | 0.00 | 0.00 | 49 | 1011.8 |
| 20260503204203 | 64 | 230 | 0.0 | 2.0 | 0.00 | 0.00 | 0.00 | 48 | 1011.8 |
| 20260503203658 | 64 | 211 | 1.0 | 2.0 | 0.00 | 0.00 | 0.00 | 47 | 1011.8 |
| 20260503203158 | 64 | 221 | 0.0 | 2.0 | 0.00 | 0.00 | 0.00 | 47 | 1011.8 |
| 20260503202706 | 65 | 227 | 0.0 | 1.0 | 0.00 | 0.00 | 0.00 | 47 | 1011.8 |
| 20260503202200 | 65 | 192 | 0.0 | 2.0 | 0.00 | 0.00 | 0.00 | 46 | 1011.8 |
| 20260503201703 | 65 | 254 | 1.0 | 2.0 | 0.00 | 0.00 | 0.00 | 45 | 1011.8 |
| 20260503201157 | 65 | 241 | 0.0 | 2.0 | 0.00 | 0.00 | 0.00 | 45 | 1011.8 |
| 20260503200657 | 66 | 256 | 0.0 | 2.0 | 0.00 | 0.00 | 0.00 | 44 | 1011.8 |
| 20260503200206 | 66 | 260 | 0.0 | 1.0 | 0.00 | 0.00 | 0.00 | 43 | 1011.8 |
| 20260503195701 | 66 | 249 | 0.0 | 1.0 | 0.00 | 0.00 | 0.00 | 43 | 1011.8 |
| 20260503195157 | 67 | 191 | 0.0 | 0.0 | 0.00 | 0.00 | 0.00 | 42 | 1011.8 |
| 20260503194658 | 67 | 279 | 0.0 | 1.0 | 0.00 | 0.00 | 0.00 | 41 | 1011.8 |
| 20260503194201 | 67 | 315 | 0.0 | 2.0 | 0.00 | 0.00 | 0.00 | 41 | 1011.8 |
| 20260503193700 | 67 | 315 | 0.0 | 1.0 | 0.00 | 0.00 | 0.00 | 40 | 1011.8 |
| 20260503193158 | 68 | 242 | 0.0 | 1.0 | 0.00 | 0.00 | 0.00 | 39 | 1011.8 |
| 20260503192700 | 68 | 308 | 0.0 | 2.0 | 0.00 | 0.00 | 0.00 | 39 | 1011.8 |
| 20260503192158 | 68 | 286 | 0.0 | 1.0 | 0.00 | 0.00 | 0.00 | 38 | 1011.8 |
| 20260503191700 | 69 | 295 | 0.0 | 2.0 | 0.00 | 0.00 | 0.00 | 38 | 1011.8 |
| 20260503191204 | 69 | 280 | 1.0 | 2.0 | 0.00 | 0.00 | 0.00 | 37 | 1011.8 |
| 20260503190700 | 69 | 298 | 1.0 | 2.0 | 0.00 | 0.00 | 0.00 | 37 | 1011.4 |
| 20260503190157 | 69 | 302 | 0.0 | 2.0 | 0.00 | 0.00 | 0.00 | 36 | 1011.4 |
| 20260503185658 | 70 | 325 | 1.0 | 2.0 | 0.00 | 0.00 | 0.00 | 35 | 1011.4 |
| 20260503185201 | 70 | 301 | 0.0 | 1.0 | 0.00 | 0.00 | 0.00 | 36 | 1011.4 |
| 20260503184706 | 70 | 301 | 0.0 | 1.0 | 0.00 | 0.00 | 0.00 | 35 | 1011.4 |
| 20260503184200 | 71 | 274 | 0.0 | 1.0 | 0.00 | 0.00 | 0.00 | 35 | 1011.4 |
| 20260503183700 | 71 | 303 | 0.0 | 2.0 | 0.00 | 0.00 | 0.00 | 34 | 1011.4 |
| 20260503183157 | 71 | 318 | 0.0 | 2.0 | 0.00 | 0.00 | 0.00 | 34 | 1011.4 |
| 20260503182657 | 71 | 290 | 0.0 | 2.0 | 0.00 | 0.00 | 0.00 | 34 | 1011.4 |
| 20260503182201 | 71 | 270 | 0.0 | 2.0 | 0.00 | 0.00 | 0.00 | 33 | 1011.4 |
| 20260503181657 | 72 | 252 | 0.0 | 3.0 | 0.00 | 0.00 | 0.00 | 33 | 1011.1 |